This demonstration page uses our WeatherBlox Daily Observations layout. Learn more.

Left ArrowRight Arrow

Hourly Observations for November 28, 2016

Temp ( °F °C ) Dew Point ( °F °C ) Humidity (%) Winds ( mph kmh ) Pressure ( in mb ) Visibility ( mi km ) Precip ( " mm )
12:53 am 00:53 Clear 51 10.6 29 -1.7 43 43 VRB 3 6 30.12 1020 10 16 0.00 0.00
1:53 am 01:53 Clear 50 10 30 -1.1 46 46 E 3 6 30.12 1020 10 16 0.00 0.00
2:50 am 02:50 Mostly Cloudy 50 10 30 -1 47 47 Calm 30.15 1021 10 16 0.00 0.00
2:53 am 02:53 Mostly Cloudy 50 10 31 -0.6 48 48 VRB 5 7 30.11 1020 10 16 0.00 0.00
3:40 am 03:40 Partly Cloudy 50 10 31 -0.6 48 48 VRB 3 6 30.15 1021 10 16 0.00 0.00
3:53 am 03:53 Mostly Clear 50 10 31 -0.6 48 48 VRB 3 6 30.10 1019 10 16 0.00 0.00
4:53 am 04:53 Mostly Cloudy 49 9.4 33 0.6 55 55 ENE 5 7 30.09 1019 10 16 0.00 0.00
5:53 am 05:53 Partly Cloudy 49 9.4 33 0.6 55 55 ESE 5 7 30.09 1019 10 16 0.00 0.00
6:53 am 06:53 Partly Cloudy 48 8.9 34 1.1 58 58 E 6 9 30.07 1018 10 16 0.00 0.00
7:53 am 07:53 Cloudy 49 9.4 35 1.7 59 59 ESE 8 13 30.08 1019 10 16 0.00 0.00
8:53 am 08:53 Cloudy 51 10.6 39 3.9 64 64 ESE 8 13 30.07 1018 10 16 0.00 0.00
9:53 am 09:53 Cloudy 52 11.1 41 5 66 66 ESE 6 9 30.07 1018 10 16 0.00 0.00
10:53 am 10:53 Cloudy 56 13.3 44 6.7 65 65 SE 8 13 30.03 1017 10 16 0.00 0.00
11:53 am 11:53 Cloudy 58 14.4 45 7.2 62 62 SSE 16 26 29.98 1015 10 16 0.00 0.00
12:53 pm 12:53 Cloudy 61 16.1 47 8.3 60 60 SE 13 20 29.94 1014 10 16 0.00 0.00
1:53 pm 13:53 Mostly Cloudy 64 17.8 47 8.3 54 54 SSE 20 31 29.88 1012 10 16 0.00 0.00
2:53 pm 14:53 Mostly Cloudy 68 20 47 8.3 47 47 SE 15 24 29.85 1011 10 16 0.00 0.00
3:53 pm 15:53 Cloudy 66 18.9 48 8.9 52 52 SSE 10 17 29.83 1010 10 16 0.00 0.00
4:53 pm 16:53 Cloudy 68 20 47 8.3 47 47 SSE 12 19 29.82 1010 10 16 0.00 0.00
5:53 pm 17:53 Mostly Cloudy 67 19.4 46 7.8 47 47 SE 9 15 29.78 1009 10 16 0.00 0.00
6:53 pm 18:53 Mostly Cloudy 68 20 46 7.8 45 45 SSE 15 24 29.78 1008 10 16 0.00 0.00
7:53 pm 19:53 Cloudy 68 20 46 7.8 45 45 SSE 16 26 29.79 1009 10 16 0.00 0.00
8:53 pm 20:53 Mostly Cloudy 68 20 47 8.3 47 47 SSE 20 31 29.76 1008 10 16 0.00 0.00
9:53 pm 21:53 Mostly Cloudy 68 20 48 8.9 49 49 SSE 21 33 29.75 1008 10 16 0.00 0.00
10:53 pm 22:53 Cloudy 67 19.4 50 10 55 55 SSE 17 28 29.73 1007 10 16 0.00 0.00
11:53 pm 23:53 Cloudy 68 20 53 11.7 59 59 S 15 24 29.71 1006 10 16 0.00 0.00

Powered by AerisWeather